<?xml version="1.0" encoding="UTF-8" standalone="no" ?>
<gpx xmlns="http://www.topografix.com/GPX/1/1" xmlns:xsi="http://www.w3.org/2001/XMLSchema-instance" xsi:schemaLocation="http://www.topografix.com/GPX/1/1 http://www.topografix.com/GPX/1/1/gpx.xsd" version="1.1" creator="VisuGPX - https://www.visugpx.com">
  <metadata>
    <name>13503767-ADEPS SPS 12092021</name>
  </metadata>
  <trk>
    <name><![CDATA[13503767-ADEPS SPS 12092021]]></name>
    <trkseg>
      <trkpt lat="50.58608" lon="4.0702">
        <ele>77</ele>
        <time>2021-08-05T12:07:37Z</time>
      </trkpt>
      <trkpt lat="50.58526" lon="4.07035">
        <ele>77</ele>
        <time>2021-08-05T12:08:43Z</time>
      </trkpt>
      <trkpt lat="50.58454" lon="4.07042">
        <ele>78</ele>
        <time>2021-08-05T12:09:41Z</time>
      </trkpt>
      <trkpt lat="50.58416" lon="4.07044">
        <ele>78</ele>
        <time>2021-08-05T12:10:11Z</time>
      </trkpt>
      <trkpt lat="50.58403" lon="4.07049">
        <ele>78</ele>
        <time>2021-08-05T12:10:22Z</time>
      </trkpt>
      <trkpt lat="50.58361" lon="4.06888">
        <ele>80</ele>
        <time>2021-08-05T12:11:51Z</time>
      </trkpt>
      <trkpt lat="50.58367" lon="4.06865">
        <ele>81</ele>
        <time>2021-08-05T12:12:03Z</time>
      </trkpt>
      <trkpt lat="50.58368" lon="4.06854">
        <ele>81</ele>
        <time>2021-08-05T12:12:09Z</time>
      </trkpt>
      <trkpt lat="50.58367" lon="4.0684">
        <ele>82</ele>
        <time>2021-08-05T12:12:16Z</time>
      </trkpt>
      <trkpt lat="50.58362" lon="4.06822">
        <ele>82</ele>
        <time>2021-08-05T12:12:26Z</time>
      </trkpt>
      <trkpt lat="50.58342" lon="4.06771">
        <ele>83</ele>
        <time>2021-08-05T12:12:56Z</time>
      </trkpt>
      <trkpt lat="50.58306" lon="4.06677">
        <ele>84</ele>
        <time>2021-08-05T12:13:52Z</time>
      </trkpt>
      <trkpt lat="50.58294" lon="4.0669">
        <ele>84</ele>
        <time>2021-08-05T12:14:04Z</time>
      </trkpt>
      <trkpt lat="50.58257" lon="4.06607">
        <ele>84</ele>
        <time>2021-08-05T12:14:55Z</time>
      </trkpt>
      <trkpt lat="50.58267" lon="4.06567">
        <ele>84</ele>
        <time>2021-08-05T12:15:17Z</time>
      </trkpt>
      <trkpt lat="50.58316" lon="4.06415">
        <ele>85</ele>
        <time>2021-08-05T12:16:44Z</time>
      </trkpt>
      <trkpt lat="50.58331" lon="4.06349">
        <ele>88</ele>
        <time>2021-08-05T12:17:20Z</time>
      </trkpt>
      <trkpt lat="50.58373" lon="4.06366">
        <ele>87</ele>
        <time>2021-08-05T12:17:54Z</time>
      </trkpt>
      <trkpt lat="50.58416" lon="4.06391">
        <ele>87</ele>
        <time>2021-08-05T12:18:31Z</time>
      </trkpt>
      <trkpt lat="50.58429" lon="4.06397">
        <ele>87</ele>
        <time>2021-08-05T12:18:42Z</time>
      </trkpt>
      <trkpt lat="50.58443" lon="4.06399">
        <ele>87</ele>
        <time>2021-08-05T12:18:53Z</time>
      </trkpt>
      <trkpt lat="50.58517" lon="4.06399">
        <ele>87</ele>
        <time>2021-08-05T12:19:52Z</time>
      </trkpt>
      <trkpt lat="50.58525" lon="4.06403">
        <ele>87</ele>
        <time>2021-08-05T12:19:59Z</time>
      </trkpt>
      <trkpt lat="50.58535" lon="4.06418">
        <ele>87</ele>
        <time>2021-08-05T12:20:10Z</time>
      </trkpt>
      <trkpt lat="50.5854" lon="4.06431">
        <ele>87</ele>
        <time>2021-08-05T12:20:18Z</time>
      </trkpt>
      <trkpt lat="50.58616" lon="4.06407">
        <ele>87</ele>
        <time>2021-08-05T12:21:20Z</time>
      </trkpt>
      <trkpt lat="50.58602" lon="4.06374">
        <ele>87</ele>
        <time>2021-08-05T12:21:40Z</time>
      </trkpt>
      <trkpt lat="50.58519" lon="4.06219">
        <ele>89</ele>
        <time>2021-08-05T12:23:23Z</time>
      </trkpt>
      <trkpt lat="50.58436" lon="4.06065">
        <ele>89</ele>
        <time>2021-08-05T12:25:06Z</time>
      </trkpt>
      <trkpt lat="50.58417" lon="4.06031">
        <ele>90</ele>
        <time>2021-08-05T12:25:29Z</time>
      </trkpt>
      <trkpt lat="50.58397" lon="4.06">
        <ele>90</ele>
        <time>2021-08-05T12:25:51Z</time>
      </trkpt>
      <trkpt lat="50.58382" lon="4.0598">
        <ele>90</ele>
        <time>2021-08-05T12:26:07Z</time>
      </trkpt>
      <trkpt lat="50.58344" lon="4.05933">
        <ele>91</ele>
        <time>2021-08-05T12:26:46Z</time>
      </trkpt>
      <trkpt lat="50.583" lon="4.0588">
        <ele>91</ele>
        <time>2021-08-05T12:27:30Z</time>
      </trkpt>
      <trkpt lat="50.58346" lon="4.05814">
        <ele>92</ele>
        <time>2021-08-05T12:28:20Z</time>
      </trkpt>
      <trkpt lat="50.58371" lon="4.05823">
        <ele>92</ele>
        <time>2021-08-05T12:28:41Z</time>
      </trkpt>
      <trkpt lat="50.5838" lon="4.05821">
        <ele>92</ele>
        <time>2021-08-05T12:28:48Z</time>
      </trkpt>
      <trkpt lat="50.5839" lon="4.05808">
        <ele>92</ele>
        <time>2021-08-05T12:28:58Z</time>
      </trkpt>
      <trkpt lat="50.58413" lon="4.05765">
        <ele>92</ele>
        <time>2021-08-05T12:29:27Z</time>
      </trkpt>
      <trkpt lat="50.58443" lon="4.05805">
        <ele>92</ele>
        <time>2021-08-05T12:29:58Z</time>
      </trkpt>
      <trkpt lat="50.5845" lon="4.05808">
        <ele>92</ele>
        <time>2021-08-05T12:30:04Z</time>
      </trkpt>
      <trkpt lat="50.58457" lon="4.05805">
        <ele>92</ele>
        <time>2021-08-05T12:30:10Z</time>
      </trkpt>
      <trkpt lat="50.58494" lon="4.05861">
        <ele>91</ele>
        <time>2021-08-05T12:30:51Z</time>
      </trkpt>
      <trkpt lat="50.58502" lon="4.05878">
        <ele>91</ele>
        <time>2021-08-05T12:31:02Z</time>
      </trkpt>
      <trkpt lat="50.58527" lon="4.05959">
        <ele>89</ele>
        <time>2021-08-05T12:31:47Z</time>
      </trkpt>
      <trkpt lat="50.58591" lon="4.05913">
        <ele>89</ele>
        <time>2021-08-05T12:32:44Z</time>
      </trkpt>
      <trkpt lat="50.58626" lon="4.05888">
        <ele>89</ele>
        <time>2021-08-05T12:33:15Z</time>
      </trkpt>
      <trkpt lat="50.58662" lon="4.05859">
        <ele>89</ele>
        <time>2021-08-05T12:33:47Z</time>
      </trkpt>
      <trkpt lat="50.58668" lon="4.05853">
        <ele>89</ele>
        <time>2021-08-05T12:33:53Z</time>
      </trkpt>
      <trkpt lat="50.58685" lon="4.05855">
        <ele>89</ele>
        <time>2021-08-05T12:34:06Z</time>
      </trkpt>
      <trkpt lat="50.58698" lon="4.05871">
        <ele>89</ele>
        <time>2021-08-05T12:34:20Z</time>
      </trkpt>
      <trkpt lat="50.58745" lon="4.0596">
        <ele>89</ele>
        <time>2021-08-05T12:35:18Z</time>
      </trkpt>
      <trkpt lat="50.5876" lon="4.05991">
        <ele>88</ele>
        <time>2021-08-05T12:35:38Z</time>
      </trkpt>
      <trkpt lat="50.58781" lon="4.06028">
        <ele>87</ele>
        <time>2021-08-05T12:36:03Z</time>
      </trkpt>
      <trkpt lat="50.58854" lon="4.05834">
        <ele>86</ele>
        <time>2021-08-05T12:37:58Z</time>
      </trkpt>
      <trkpt lat="50.58891" lon="4.05736">
        <ele>86</ele>
        <time>2021-08-05T12:38:56Z</time>
      </trkpt>
      <trkpt lat="50.589" lon="4.05712">
        <ele>86</ele>
        <time>2021-08-05T12:39:10Z</time>
      </trkpt>
      <trkpt lat="50.5897" lon="4.0552">
        <ele>83</ele>
        <time>2021-08-05T12:41:03Z</time>
      </trkpt>
      <trkpt lat="50.58916" lon="4.05442">
        <ele>83</ele>
        <time>2021-08-05T12:42:01Z</time>
      </trkpt>
      <trkpt lat="50.58913" lon="4.05412">
        <ele>82</ele>
        <time>2021-08-05T12:42:17Z</time>
      </trkpt>
      <trkpt lat="50.58917" lon="4.05389">
        <ele>82</ele>
        <time>2021-08-05T12:42:29Z</time>
      </trkpt>
      <trkpt lat="50.58941" lon="4.05306">
        <ele>80</ele>
        <time>2021-08-05T12:43:15Z</time>
      </trkpt>
      <trkpt lat="50.5896" lon="4.05204">
        <ele>77</ele>
        <time>2021-08-05T12:44:09Z</time>
      </trkpt>
      <trkpt lat="50.58979" lon="4.05172">
        <ele>76</ele>
        <time>2021-08-05T12:44:32Z</time>
      </trkpt>
      <trkpt lat="50.59008" lon="4.05146">
        <ele>76</ele>
        <time>2021-08-05T12:44:58Z</time>
      </trkpt>
      <trkpt lat="50.59018" lon="4.05112">
        <ele>76</ele>
        <time>2021-08-05T12:45:17Z</time>
      </trkpt>
      <trkpt lat="50.59015" lon="4.05069">
        <ele>76</ele>
        <time>2021-08-05T12:45:39Z</time>
      </trkpt>
      <trkpt lat="50.5901" lon="4.04913">
        <ele>77</ele>
        <time>2021-08-05T12:46:59Z</time>
      </trkpt>
      <trkpt lat="50.59006" lon="4.04775">
        <ele>79</ele>
        <time>2021-08-05T12:48:09Z</time>
      </trkpt>
      <trkpt lat="50.59012" lon="4.04709">
        <ele>79</ele>
        <time>2021-08-05T12:48:43Z</time>
      </trkpt>
      <trkpt lat="50.59019" lon="4.04606">
        <ele>80</ele>
        <time>2021-08-05T12:49:36Z</time>
      </trkpt>
      <trkpt lat="50.5902" lon="4.04581">
        <ele>80</ele>
        <time>2021-08-05T12:49:48Z</time>
      </trkpt>
      <trkpt lat="50.59034" lon="4.0443">
        <ele>82</ele>
        <time>2021-08-05T12:51:06Z</time>
      </trkpt>
      <trkpt lat="50.59051" lon="4.04274">
        <ele>83</ele>
        <time>2021-08-05T12:52:26Z</time>
      </trkpt>
      <trkpt lat="50.59063" lon="4.04202">
        <ele>83</ele>
        <time>2021-08-05T12:53:04Z</time>
      </trkpt>
      <trkpt lat="50.59094" lon="4.0401">
        <ele>82</ele>
        <time>2021-08-05T12:54:45Z</time>
      </trkpt>
      <trkpt lat="50.59126" lon="4.03813">
        <ele>82</ele>
        <time>2021-08-05T12:56:28Z</time>
      </trkpt>
      <trkpt lat="50.59148" lon="4.03613">
        <ele>81</ele>
        <time>2021-08-05T12:58:11Z</time>
      </trkpt>
      <trkpt lat="50.59156" lon="4.03546">
        <ele>81</ele>
        <time>2021-08-05T12:58:46Z</time>
      </trkpt>
      <trkpt lat="50.59177" lon="4.03442">
        <ele>80</ele>
        <time>2021-08-05T12:59:42Z</time>
      </trkpt>
      <trkpt lat="50.59179" lon="4.03283">
        <ele>77</ele>
        <time>2021-08-05T13:01:02Z</time>
      </trkpt>
      <trkpt lat="50.59184" lon="4.03203">
        <ele>74</ele>
        <time>2021-08-05T13:01:43Z</time>
      </trkpt>
      <trkpt lat="50.59148" lon="4.03124">
        <ele>73</ele>
        <time>2021-08-05T13:02:33Z</time>
      </trkpt>
      <trkpt lat="50.59139" lon="4.03099">
        <ele>73</ele>
        <time>2021-08-05T13:02:47Z</time>
      </trkpt>
      <trkpt lat="50.59138" lon="4.03056">
        <ele>72</ele>
        <time>2021-08-05T13:03:09Z</time>
      </trkpt>
      <trkpt lat="50.59144" lon="4.02997">
        <ele>73</ele>
        <time>2021-08-05T13:03:39Z</time>
      </trkpt>
      <trkpt lat="50.59146" lon="4.02958">
        <ele>72</ele>
        <time>2021-08-05T13:03:59Z</time>
      </trkpt>
      <trkpt lat="50.59143" lon="4.02942">
        <ele>72</ele>
        <time>2021-08-05T13:04:08Z</time>
      </trkpt>
      <trkpt lat="50.59138" lon="4.02931">
        <ele>72</ele>
        <time>2021-08-05T13:04:15Z</time>
      </trkpt>
      <trkpt lat="50.59123" lon="4.02922">
        <ele>73</ele>
        <time>2021-08-05T13:04:28Z</time>
      </trkpt>
      <trkpt lat="50.59105" lon="4.02915">
        <ele>74</ele>
        <time>2021-08-05T13:04:42Z</time>
      </trkpt>
      <trkpt lat="50.59081" lon="4.0291">
        <ele>75</ele>
        <time>2021-08-05T13:05:02Z</time>
      </trkpt>
      <trkpt lat="50.59054" lon="4.02898">
        <ele>74</ele>
        <time>2021-08-05T13:05:24Z</time>
      </trkpt>
      <trkpt lat="50.59003" lon="4.02866">
        <ele>75</ele>
        <time>2021-08-05T13:06:08Z</time>
      </trkpt>
      <trkpt lat="50.58933" lon="4.02828">
        <ele>75</ele>
        <time>2021-08-05T13:07:08Z</time>
      </trkpt>
      <trkpt lat="50.58878" lon="4.02789">
        <ele>76</ele>
        <time>2021-08-05T13:07:56Z</time>
      </trkpt>
      <trkpt lat="50.58848" lon="4.02768">
        <ele>77</ele>
        <time>2021-08-05T13:08:22Z</time>
      </trkpt>
      <trkpt lat="50.58809" lon="4.02744">
        <ele>77</ele>
        <time>2021-08-05T13:08:56Z</time>
      </trkpt>
      <trkpt lat="50.58761" lon="4.02716">
        <ele>77</ele>
        <time>2021-08-05T13:09:37Z</time>
      </trkpt>
      <trkpt lat="50.58672" lon="4.02644">
        <ele>79</ele>
        <time>2021-08-05T13:10:57Z</time>
      </trkpt>
      <trkpt lat="50.58596" lon="4.02581">
        <ele>80</ele>
        <time>2021-08-05T13:12:05Z</time>
      </trkpt>
      <trkpt lat="50.58565" lon="4.02554">
        <ele>80</ele>
        <time>2021-08-05T13:12:34Z</time>
      </trkpt>
      <trkpt lat="50.58509" lon="4.02498">
        <ele>80</ele>
        <time>2021-08-05T13:13:27Z</time>
      </trkpt>
      <trkpt lat="50.58431" lon="4.02418">
        <ele>80</ele>
        <time>2021-08-05T13:14:41Z</time>
      </trkpt>
      <trkpt lat="50.58399" lon="4.02381">
        <ele>81</ele>
        <time>2021-08-05T13:15:13Z</time>
      </trkpt>
      <trkpt lat="50.5837" lon="4.02342">
        <ele>81</ele>
        <time>2021-08-05T13:15:44Z</time>
      </trkpt>
      <trkpt lat="50.58351" lon="4.02317">
        <ele>81</ele>
        <time>2021-08-05T13:16:04Z</time>
      </trkpt>
      <trkpt lat="50.58336" lon="4.023">
        <ele>81</ele>
        <time>2021-08-05T13:16:18Z</time>
      </trkpt>
      <trkpt lat="50.5832" lon="4.02285">
        <ele>81</ele>
        <time>2021-08-05T13:16:33Z</time>
      </trkpt>
      <trkpt lat="50.58297" lon="4.02272">
        <ele>82</ele>
        <time>2021-08-05T13:16:53Z</time>
      </trkpt>
      <trkpt lat="50.58283" lon="4.02262">
        <ele>82</ele>
        <time>2021-08-05T13:17:05Z</time>
      </trkpt>
      <trkpt lat="50.58267" lon="4.02245">
        <ele>83</ele>
        <time>2021-08-05T13:17:21Z</time>
      </trkpt>
      <trkpt lat="50.58231" lon="4.02175">
        <ele>83</ele>
        <time>2021-08-05T13:18:06Z</time>
      </trkpt>
      <trkpt lat="50.58219" lon="4.02154">
        <ele>82</ele>
        <time>2021-08-05T13:18:21Z</time>
      </trkpt>
      <trkpt lat="50.58205" lon="4.02139">
        <ele>82</ele>
        <time>2021-08-05T13:18:34Z</time>
      </trkpt>
      <trkpt lat="50.58167" lon="4.02111">
        <ele>81</ele>
        <time>2021-08-05T13:19:08Z</time>
      </trkpt>
      <trkpt lat="50.58167" lon="4.02121">
        <ele>81</ele>
        <time>2021-08-05T13:19:13Z</time>
      </trkpt>
      <trkpt lat="50.58163" lon="4.02143">
        <ele>81</ele>
        <time>2021-08-05T13:19:25Z</time>
      </trkpt>
      <trkpt lat="50.58142" lon="4.02227">
        <ele>83</ele>
        <time>2021-08-05T13:20:11Z</time>
      </trkpt>
      <trkpt lat="50.58132" lon="4.0226">
        <ele>83</ele>
        <time>2021-08-05T13:20:29Z</time>
      </trkpt>
      <trkpt lat="50.58094" lon="4.02369">
        <ele>82</ele>
        <time>2021-08-05T13:21:32Z</time>
      </trkpt>
      <trkpt lat="50.5809" lon="4.02389">
        <ele>83</ele>
        <time>2021-08-05T13:21:43Z</time>
      </trkpt>
      <trkpt lat="50.5809" lon="4.02424">
        <ele>83</ele>
        <time>2021-08-05T13:22:01Z</time>
      </trkpt>
      <trkpt lat="50.58106" lon="4.02508">
        <ele>84</ele>
        <time>2021-08-05T13:22:45Z</time>
      </trkpt>
      <trkpt lat="50.5811" lon="4.02554">
        <ele>84</ele>
        <time>2021-08-05T13:23:09Z</time>
      </trkpt>
      <trkpt lat="50.58112" lon="4.02587">
        <ele>84</ele>
        <time>2021-08-05T13:23:26Z</time>
      </trkpt>
      <trkpt lat="50.58128" lon="4.02684">
        <ele>85</ele>
        <time>2021-08-05T13:24:17Z</time>
      </trkpt>
      <trkpt lat="50.58129" lon="4.02703">
        <ele>85</ele>
        <time>2021-08-05T13:24:27Z</time>
      </trkpt>
      <trkpt lat="50.58117" lon="4.02844">
        <ele>86</ele>
        <time>2021-08-05T13:25:39Z</time>
      </trkpt>
      <trkpt lat="50.58105" lon="4.02918">
        <ele>86</ele>
        <time>2021-08-05T13:26:18Z</time>
      </trkpt>
      <trkpt lat="50.58087" lon="4.02991">
        <ele>86</ele>
        <time>2021-08-05T13:26:58Z</time>
      </trkpt>
      <trkpt lat="50.58082" lon="4.03019">
        <ele>86</ele>
        <time>2021-08-05T13:27:12Z</time>
      </trkpt>
      <trkpt lat="50.58102" lon="4.03143">
        <ele>86</ele>
        <time>2021-08-05T13:28:17Z</time>
      </trkpt>
      <trkpt lat="50.58102" lon="4.03199">
        <ele>86</ele>
        <time>2021-08-05T13:28:46Z</time>
      </trkpt>
      <trkpt lat="50.58096" lon="4.0331">
        <ele>86</ele>
        <time>2021-08-05T13:29:42Z</time>
      </trkpt>
      <trkpt lat="50.5808" lon="4.03385">
        <ele>88</ele>
        <time>2021-08-05T13:30:23Z</time>
      </trkpt>
      <trkpt lat="50.58078" lon="4.03398">
        <ele>88</ele>
        <time>2021-08-05T13:30:29Z</time>
      </trkpt>
      <trkpt lat="50.58075" lon="4.03575">
        <ele>90</ele>
        <time>2021-08-05T13:32:00Z</time>
      </trkpt>
      <trkpt lat="50.58071" lon="4.03684">
        <ele>92</ele>
        <time>2021-08-05T13:32:55Z</time>
      </trkpt>
      <trkpt lat="50.5807" lon="4.03727">
        <ele>93</ele>
        <time>2021-08-05T13:33:17Z</time>
      </trkpt>
      <trkpt lat="50.58078" lon="4.03817">
        <ele>93</ele>
        <time>2021-08-05T13:34:03Z</time>
      </trkpt>
      <trkpt lat="50.58087" lon="4.03901">
        <ele>92</ele>
        <time>2021-08-05T13:34:46Z</time>
      </trkpt>
      <trkpt lat="50.58099" lon="4.04046">
        <ele>92</ele>
        <time>2021-08-05T13:36:01Z</time>
      </trkpt>
      <trkpt lat="50.58103" lon="4.04095">
        <ele>92</ele>
        <time>2021-08-05T13:36:26Z</time>
      </trkpt>
      <trkpt lat="50.58107" lon="4.0421">
        <ele>92</ele>
        <time>2021-08-05T13:37:24Z</time>
      </trkpt>
      <trkpt lat="50.58111" lon="4.0432">
        <ele>92</ele>
        <time>2021-08-05T13:38:20Z</time>
      </trkpt>
      <trkpt lat="50.5813" lon="4.04465">
        <ele>92</ele>
        <time>2021-08-05T13:39:36Z</time>
      </trkpt>
      <trkpt lat="50.58139" lon="4.04663">
        <ele>90</ele>
        <time>2021-08-05T13:41:17Z</time>
      </trkpt>
      <trkpt lat="50.58127" lon="4.04865">
        <ele>88</ele>
        <time>2021-08-05T13:43:00Z</time>
      </trkpt>
      <trkpt lat="50.58123" lon="4.04934">
        <ele>88</ele>
        <time>2021-08-05T13:43:35Z</time>
      </trkpt>
      <trkpt lat="50.58129" lon="4.04998">
        <ele>88</ele>
        <time>2021-08-05T13:44:08Z</time>
      </trkpt>
      <trkpt lat="50.58128" lon="4.05035">
        <ele>88</ele>
        <time>2021-08-05T13:44:27Z</time>
      </trkpt>
      <trkpt lat="50.58117" lon="4.0508">
        <ele>87</ele>
        <time>2021-08-05T13:44:51Z</time>
      </trkpt>
      <trkpt lat="50.58115" lon="4.05127">
        <ele>88</ele>
        <time>2021-08-05T13:45:15Z</time>
      </trkpt>
      <trkpt lat="50.58137" lon="4.05295">
        <ele>89</ele>
        <time>2021-08-05T13:46:42Z</time>
      </trkpt>
      <trkpt lat="50.58135" lon="4.05321">
        <ele>88</ele>
        <time>2021-08-05T13:46:56Z</time>
      </trkpt>
      <trkpt lat="50.58127" lon="4.05358">
        <ele>89</ele>
        <time>2021-08-05T13:47:16Z</time>
      </trkpt>
      <trkpt lat="50.58082" lon="4.0551">
        <ele>91</ele>
        <time>2021-08-05T13:48:41Z</time>
      </trkpt>
      <trkpt lat="50.58073" lon="4.05547">
        <ele>91</ele>
        <time>2021-08-05T13:49:01Z</time>
      </trkpt>
      <trkpt lat="50.58073" lon="4.05577">
        <ele>91</ele>
        <time>2021-08-05T13:49:16Z</time>
      </trkpt>
      <trkpt lat="50.58075" lon="4.05613">
        <ele>91</ele>
        <time>2021-08-05T13:49:35Z</time>
      </trkpt>
      <trkpt lat="50.58041" lon="4.05812">
        <ele>91</ele>
        <time>2021-08-05T13:51:19Z</time>
      </trkpt>
      <trkpt lat="50.58048" lon="4.05826">
        <ele>91</ele>
        <time>2021-08-05T13:51:28Z</time>
      </trkpt>
      <trkpt lat="50.58059" lon="4.05837">
        <ele>90</ele>
        <time>2021-08-05T13:51:39Z</time>
      </trkpt>
      <trkpt lat="50.58071" lon="4.05843">
        <ele>90</ele>
        <time>2021-08-05T13:51:49Z</time>
      </trkpt>
      <trkpt lat="50.58063" lon="4.05936">
        <ele>88</ele>
        <time>2021-08-05T13:52:37Z</time>
      </trkpt>
      <trkpt lat="50.58056" lon="4.05941">
        <ele>88</ele>
        <time>2021-08-05T13:52:43Z</time>
      </trkpt>
      <trkpt lat="50.5806" lon="4.05953">
        <ele>87</ele>
        <time>2021-08-05T13:52:50Z</time>
      </trkpt>
      <trkpt lat="50.58064" lon="4.05957">
        <ele>87</ele>
        <time>2021-08-05T13:52:54Z</time>
      </trkpt>
      <trkpt lat="50.58059" lon="4.06032">
        <ele>86</ele>
        <time>2021-08-05T13:53:32Z</time>
      </trkpt>
      <trkpt lat="50.58054" lon="4.06034">
        <ele>86</ele>
        <time>2021-08-05T13:53:36Z</time>
      </trkpt>
      <trkpt lat="50.5805" lon="4.06041">
        <ele>86</ele>
        <time>2021-08-05T13:53:41Z</time>
      </trkpt>
      <trkpt lat="50.58055" lon="4.06052">
        <ele>86</ele>
        <time>2021-08-05T13:53:48Z</time>
      </trkpt>
      <trkpt lat="50.58049" lon="4.0615">
        <ele>87</ele>
        <time>2021-08-05T13:54:38Z</time>
      </trkpt>
      <trkpt lat="50.58105" lon="4.06164">
        <ele>85</ele>
        <time>2021-08-05T13:55:23Z</time>
      </trkpt>
      <trkpt lat="50.58164" lon="4.06188">
        <ele>84</ele>
        <time>2021-08-05T13:56:12Z</time>
      </trkpt>
      <trkpt lat="50.58189" lon="4.06197">
        <ele>84</ele>
        <time>2021-08-05T13:56:32Z</time>
      </trkpt>
      <trkpt lat="50.58207" lon="4.06204">
        <ele>84</ele>
        <time>2021-08-05T13:56:47Z</time>
      </trkpt>
      <trkpt lat="50.58231" lon="4.06217">
        <ele>84</ele>
        <time>2021-08-05T13:57:08Z</time>
      </trkpt>
      <trkpt lat="50.58239" lon="4.06229">
        <ele>84</ele>
        <time>2021-08-05T13:57:16Z</time>
      </trkpt>
      <trkpt lat="50.58263" lon="4.06287">
        <ele>84</ele>
        <time>2021-08-05T13:57:52Z</time>
      </trkpt>
      <trkpt lat="50.58269" lon="4.0631">
        <ele>85</ele>
        <time>2021-08-05T13:58:04Z</time>
      </trkpt>
      <trkpt lat="50.58268" lon="4.06327">
        <ele>85</ele>
        <time>2021-08-05T13:58:13Z</time>
      </trkpt>
      <trkpt lat="50.58263" lon="4.06345">
        <ele>84</ele>
        <time>2021-08-05T13:58:23Z</time>
      </trkpt>
      <trkpt lat="50.58217" lon="4.06442">
        <ele>82</ele>
        <time>2021-08-05T13:59:25Z</time>
      </trkpt>
      <trkpt lat="50.58209" lon="4.0647">
        <ele>82</ele>
        <time>2021-08-05T13:59:40Z</time>
      </trkpt>
      <trkpt lat="50.58181" lon="4.06571">
        <ele>81</ele>
        <time>2021-08-05T14:00:36Z</time>
      </trkpt>
      <trkpt lat="50.58169" lon="4.06621">
        <ele>80</ele>
        <time>2021-08-05T14:01:03Z</time>
      </trkpt>
      <trkpt lat="50.5814" lon="4.06834">
        <ele>80</ele>
        <time>2021-08-05T14:02:54Z</time>
      </trkpt>
      <trkpt lat="50.58147" lon="4.06842">
        <ele>80</ele>
        <time>2021-08-05T14:03:01Z</time>
      </trkpt>
      <trkpt lat="50.5823" lon="4.06763">
        <ele>81</ele>
        <time>2021-08-05T14:04:19Z</time>
      </trkpt>
      <trkpt lat="50.58238" lon="4.06776">
        <ele>81</ele>
        <time>2021-08-05T14:04:28Z</time>
      </trkpt>
      <trkpt lat="50.5826" lon="4.06806">
        <ele>80</ele>
        <time>2021-08-05T14:04:51Z</time>
      </trkpt>
      <trkpt lat="50.58275" lon="4.06824">
        <ele>80</ele>
        <time>2021-08-05T14:05:06Z</time>
      </trkpt>
      <trkpt lat="50.58325" lon="4.0686">
        <ele>80</ele>
        <time>2021-08-05T14:05:50Z</time>
      </trkpt>
      <trkpt lat="50.58359" lon="4.06887">
        <ele>80</ele>
        <time>2021-08-05T14:06:21Z</time>
      </trkpt>
      <trkpt lat="50.58404" lon="4.0705">
        <ele>78</ele>
        <time>2021-08-05T14:07:51Z</time>
      </trkpt>
      <trkpt lat="50.58419" lon="4.07043">
        <ele>78</ele>
        <time>2021-08-05T14:08:04Z</time>
      </trkpt>
      <trkpt lat="50.5849" lon="4.0704">
        <ele>78</ele>
        <time>2021-08-05T14:09:01Z</time>
      </trkpt>
      <trkpt lat="50.58534" lon="4.07033">
        <ele>77</ele>
        <time>2021-08-05T14:09:36Z</time>
      </trkpt>
      <trkpt lat="50.58604" lon="4.0702">
        <ele>77</ele>
        <time>2021-08-05T14:10:32Z</time>
      </trkpt>
    </trkseg>
  </trk>
</gpx>